sat.trackr.live / text

‹ back to catalog

STARLINK-3276

NORAD 50189 · 2021-125AK

PAYLOAD ACTIVE UNKNOWN

§ Identity

Operator
Country
US
Launch date
2021-12-18
Launch site
AFWTR
Launch vehicle
Mass (kg)
RCS (m²)

Purposes: comms

External: N2YO · Heavens-Above · Gunter

§ Orbital elements

Epoch: 2026-05-24T18:02:04.757280Z

Period
95.02 min
Inclination
53.2147°
Eccentricity
0.0002799
Mean motion
15.15446551 rev/d
Perigee alt
517.7 km
Apogee alt
521.6 km
Semi-major
6,897.8 km
B*
8.8575e-4
RAAN
264.0371°
Arg perigee
26.0603°
Mean anomaly
334.0533°
Rev number
24,817

§ Raw data

STARLINK-32761 50189U 21125AK  26144.75144395  .00016679  00000+0  88575-3 0  99932 50189  53.2147 264.0371 0002799  26.0603 334.0533 15.15446551248174

JSON: /api/v1/satellites/50189 · /tle

For live sub-satellite position, see the globe view (requires WebGL).

§ Visibility from observer

Set your observer location to see the next 7 days of passes ≥ 10°. The values pass through the URL so the page stays shareable.

No JS? Fill the form by hand. The geolocation button needs JavaScript.